Location: Pedholt
(56.0260°N, 10.2097°E)
Time: 02:47:54
(UTC+00:00)

SR - Pass Details

Date: 01 August 2021
Orbit: 581 x 873 km, 66.7° (Epoch: 27 September)

Event Time Altitude Azimuth Distance (km) Brightness Sun altitude
Rises 08:54:32 0° 276° (W) 3,362 ? 42.5°
Reaches altitude 10° 08:57:25 10° 287° (WNW) 2,387 ? 42.8°
Maximum altitude 09:02:06 28° 346° (NNW) 1,413 ? 43.3°
Drops below altitude 10° 09:06:29 10° 45° (NE) 2,223 ? 43.8°
Sets 09:09:04 0° 58° (ENE) 3,091 ? 44.0°
